This is the latest recevied weather packets stored in our database for station/object DO7CRZ-11. If no packets are shown the sender has not sent any weather packets the latest 10 day(s).
| Time | Temp. | Humidity | Pressure | Rain* | Wind** | Luminosity | Snow |
|---|---|---|---|---|---|---|---|
| 1777935730 | 12.22° C | 74% | 1012.4 hPa | 0 mm | - | 0 W/m² | - |
| 1777935138 | 12.78° C | 73% | 1012.5 hPa | 0 mm | - | 0 W/m² | - |
| 1777934526 | 12.78° C | 73% | 1012.5 hPa | 0 mm | - | 0 W/m² | - |
| 1777933929 | 12.78° C | 73% | 1012.7 hPa | 0 mm | - | 0 W/m² | - |
| 1777933333 | 13.33° C | 72% | 1012.8 hPa | 0 mm | - | 0 W/m² | - |
| 1777932728 | 13.33° C | 71% | 1012.8 hPa | 0 mm | - | 0 W/m² | - |
| 1777932129 | 13.33° C | 71% | 1012.9 hPa | 0 mm | - | 0 W/m² | - |
| 1777931535 | 13.33° C | 70% | 1013 hPa | 0 mm | - | 0 W/m² | - |
| 1777930926 | 13.33° C | 69% | 1013.2 hPa | 0 mm | - | 0 W/m² | - |
| 1777929739 | 13.89° C | 69% | 1013.3 hPa | 0 mm | - | 0 W/m² | - |
| 1777928529 | 14.44° C | 67% | 1013.1 hPa | 0 mm | - | 0 W/m² | - |
| 1777927932 | 14.44° C | 66% | 1013 hPa | 0 mm | - | 0 W/m² | - |
| 1777927338 | 15° C | 66% | 1013.1 hPa | 0 mm | - | 0 W/m² | - |
| 1777926729 | 15° C | 65% | 1013.1 hPa | 0 mm | - | 0 W/m² | - |
| 1777926133 | 15° C | 65% | 1013.1 hPa | 0 mm | - | 0 W/m² | - |
| 1777924929 | 15.56° C | 63% | 1013.2 hPa | 0 mm | - | 0 W/m² | - |
| 1777924338 | 16.11° C | 62% | 1013.3 hPa | 0 mm | - | 0 W/m² | - |
| 1777923743 | 16.11° C | 61% | 1013.2 hPa | 0 mm | - | 0 W/m² | - |
| 1777923129 | 16.67° C | 60% | 1013.2 hPa | 0 mm | - | 0 W/m² | - |
| 1777922535 | 17.22° C | 59% | 1013.1 hPa | 0 mm | - | 0 W/m² | - |
| 1777921330 | 17.78° C | 57% | 1013.2 hPa | 0 mm | - | 0 W/m² | - |
| 1777920733 | 18.33° C | 56% | 1013 hPa | 0 mm | - | 0 W/m² | - |
| 1777920126 | 18.89° C | 55% | 1012.9 hPa | 0 mm | - | 1 W/m² | - |
| 1777919532 | 19.44° C | 54% | 1012.9 hPa | 0 mm | - | 2 W/m² | - |
| 1777918938 | 20° C | 52% | 1012.9 hPa | 0 mm | - | 5 W/m² | - |
* Rain latest hour (hover to see other rain measurements)
** Current wind speed in m/s (hover to see current wind gust speed)